Regional Weather Roundup
Issued by NWS Charleston, SC

Current Version | Previous Version | Graphics & Text | Print | Product List | Glossary On
Versions: 1 2 3 4 5 6 7 8 9 10 11 12 13 14 15 16 17 18 19 20 21 22 23 24 25 26 27 28 29 30 31 32 33 34 35 36 37 38 39 40 41 42 43 44 45 46 47 48 49 50
000 ASUS42 KCHS 180512 RWRCHS Regional Weather Roundup National Weather Service Charleston SC 1200 AM EST SUN FEB 18 2018 NOTE: "fair" indicates few or no clouds below 12,000 feet with no significant weather and/or obstructions to visibility. Not all stations are quality controlled. Use data with caution, especially dewpoint observations. SCZ027-030-031-034>040-042>050-180600- ...Southeast South Carolina... CITY SKY/WX TMP DP RH WIND PRES REMARKS N Charleston FAIR 62 59 90 SW9 30.11S Waterfront Prk N/A 59 59 100 SW5 29.97F Mount Pleasant FAIR 59 59 100 SW6 30.11S Johns Island N/A 61 59 94 SW7 30.12S Pinopolis N/A 61 59 94 SW6 30.01R Moncks Corner FAIR 59 57 94 SW6 30.10S Summerville FAIR 59 57 94 S5 30.11S Beaufort MCAS FAIR 61 60 97 S3 30.12S Beaufort Arpt FAIR 61 59 94 SW7 30.12S Hilton Head Is FAIR 63 59 88 SW6 30.14R Walterboro FAIR 57 55 94 SW3 30.12S Allendale FAIR 66 61 82 CALM 30.10S ...Southern Midlands and Pee Dee... CITY SKY/WX TMP DP RH WIND PRES REMARKS Georgetown FAIR 59 57 94 SW8 30.11S Kingstree FAIR 59 57 94 S3 30.09S Orangeburg FAIR 60 58 92 S6 30.09S Barnwell N/A 68 63 83 SW6 30.10S Aiken FAIR 52 52 100 CALM 30.13S Manning FAIR 59 43 55 MISG 30.09S Columbia FAIR 56 51 84 NW3 30.09R Sumter FAIR 59 59 100 S3 30.06R Florence FAIR 57 56 96 SW6 30.07S Myrtle Beach MOCLDY 59 58 96 SW5 30.09S N Myrtle Beach FOG 58 58 100 SW13 30.08S VSB 1/2 $$ GAZ063-065-086>088-099>101-113>116-118-119-134>141-150-180600- ...Southeast Georgia... CITY SKY/WX TMP DP RH WIND PRES REMARKS Savannah Arpt FAIR 66 61 84 S8 30.13S Hunter AAF FAIR 65 62 90 SW5 30.11S Fort Stewart FAIR 67 59 74 SW7 30.12S Statesboro FAIR 67 60 78 SW3 30.12S Sylvania FAIR 67 64 89 CALM 30.13S Claxton FAIR 64 62 93 CALM 30.13S ...CSRA, Central and far Southeast Georgia... CITY SKY/WX TMP DP RH WIND PRES REMARKS Thomson CLOUDY 55 53 92 NE5 30.16R Augusta-Bush MOCLDY 56 55 97 CALM 30.09S Augusta-Daniel CLOUDY 59 55 87 CALM 30.10F Swainsboro FAIR 64 63 94 CALM 30.13S Vidalia FAIR 63 63 100 SW3 30.13S Eastman FAIR 65 57 74 SW3 30.15S Hazlehurst FAIR 67 59 76 SW7 30.12F Alma FAIR 64 59 83 S5 30.14S Waycross FAIR 64 61 90 SW6 30.15F Jesup FAIR 66 59 77 CALM 30.15S Baxley FAIR 63 63 100 SW3 30.14S Brunswick FAIR 66 59 77 SW7 30.17S Saint Simons FAIR 66 61 84 SW8 30.16S $$ SCZ027-028-034-036>038-045-046-048>050-GAZ119-141-180600- ...Lake and Supplemental Coastal Observations... STATION/POSITION TIME TEMP WIND PRES WAVE SWELL AIR SEA DIR/SP/G HT/PER HT/PER/DIR (UTC) (F) (DEG/KT/KT) (MB) (FT/S) (FT/S/D) Winyah Bay 0345 60 220/ 11 1020.0 Lake Murray 0420 53 330/ 2/ 4 1018.3 ACE Basin NERRS 0345 58 CALM 1020.0 Fort Pulaski 0448 61 58 200/ 5/ 7 1020.6S Sapelo Island 0400 62 170/ 5 1021.0 $$ ANZ835-935-AMZ111-154-330-350-352-354-370-450-454-472-180600- ...C-MAN and Buoy Observations... STATION/POSITION TIME TEMP WIND PRES WAVE SWELL AIR SEA DIR/SP/G HT/PER HT/PER/DIR (UTC) (F) (DEG/KT/KT) (MB) (FT/S) (FT/S/D) Buoy 41004 0450 69 69 230/ 16/ 21 1019.6F 4/11 3/120/11 Buoy 41008 0450 61 58 200/ 10/ 12 1020.8S 2/ 9 2/120/ 9 Folly Beach CMAN 0400 58 230/ 8/ 11 1020.4F Capers Nearshore 0408 53 56 240/ 10/ 16 1019.3F Fripp Nearshore 0408 55 56 220/ 10/ 14 1019.5F STATION/POSITION TIME TEMP WIND PRES WAVE SWELL AIR SEA DIR/SP/G HT/PER HT/PER/DIR (UTC) (F) (DEG/KT/KT) (MB) (FT/S) (FT/S/D) 5E St. Marys GA 0500 59 N/A 1/11 2/120/11 Frying Pan Buoy 0450 67 65 210/ 14/ 16 1018.6F Buoy 41025 0450 66 69 240/ 17/ 23 1017.1F 5/ 8 3/ 70/ 8 Cape Lookout NC 0400 280/ 5/ 5 1018.5F Buoy 41002 0450 73 72 210/ 16/ 19 1021.3F 5/ 8 3/ 40/ 8 Buoy 41010 NOT AVBL St Augustine FL 0500 66 58 220/ 7/ 9 1022.2F $$

USA.gov is the U.S. government's official web portal to all federal, state and local government web resources and services.